Location: Maccacari
(45.1333°N, 11.1333°E)
Time: 15:22:35
(UTC+00:00)

Vanguard 2 Rocket - Visible Passes

Search period start: 23 January 2021 00:00
Search period end: 02 February 2021 00:00
Orbit: 554 x 3325 km, 32.9° (Epoch: 22 January)

Date Brightness Start Highest point End Pass type
(mag) Time Alt. Az. Time Alt. Az. Time Alt. Az.
23 Jan 8.9 16:45:57 10° WSW 16:54:41 33° S 17:00:09 10° SE visible
23 Jan 8.7 19:02:41 10° WSW 19:06:46 17° SSW 19:07:54 16° SSW visible
24 Jan 8.7 18:01:04 10° WSW 18:07:39 25° SSW 18:11:52 11° SSE visible
25 Jan 8.9 16:59:22 10° WSW 17:08:17 33° SSW 17:13:51 10° SE visible
25 Jan 9.1 19:17:28 10° WSW 19:20:02 12° SW 19:21:40 11° SSW visible
26 Jan 9.0 18:14:59 10° WSW 18:21:00 21° SSW 18:25:18 10° SSE visible
27 Jan 9.1 17:12:58 10° WSW 17:21:44 30° SSW 17:27:20 10° SE visible
28 Jan 9.3 18:29:23 10° WSW 18:34:10 16° SW 18:37:52 10° S visible
29 Jan 9.3 17:26:47 10° W 17:35:00 25° SSW 17:40:30 10° SSE visible
30 Jan 9.8 18:45:16 10° WSW 18:47:08 11° SW 18:48:50 10° SSW visible
31 Jan 9.5 17:40:58 10° W 17:48:05 20° SW 17:53:11 10° S visible
01 Feb 9.6 16:38:06 10° W 16:48:43 30° SSW 16:55:32 10° SSE visible
